When you browse on this site, cookies collect data to enhance your experience and personalize the content and advertising you see.
Visit our Privacy Policy to learn more. By continuing to use the site, you agree to this use of cookies and data.
  • En España
  • Lista de países
  • Para 7 días
  • Temperatura del agua
  • Mapa Satelital
  • El tiempo en el mapa
  • Informadores
  • user-avatar
    Iniciar sesión

    Tiempo cada hora Ashkelon

    Hoy, 20 Julio, Sábado

    Tiempo Temperatura Precipitaciones Viento Presión Humedad
    00:00 +23°C° 0 mm 1 mps 755 mmHg 85%
    01:00 +23°C° 0 mm 1 mps 755 mmHg 86%
    02:00 +23°C° 0 mm 1 mps 755 mmHg 86%
    03:00 +23°C° 0 mm 1 mps 755 mmHg 87%
    04:00 +23°C° 0 mm 1 mps 755 mmHg 87%
    05:00 +23°C° 0 mm 1 mps 755 mmHg 87%
    06:00 +25°C° 0 mm 1 mps 755 mmHg 79%
    07:00 +26°C° 0 mm 1 mps 755 mmHg 72%
    08:00 +28°C° 0 mm 1 mps 755 mmHg 64%
    09:00 +30°C° 0 mm 2 mps 755 mmHg 58%
    10:00 +31°C° 0 mm 3 mps 755 mmHg 53%
    11:00 +33°C° 0 mm 4 mps 755 mmHg 47%
    12:00 +33°C° 0 mm 5 mps 755 mmHg 47%
    13:00 +33°C° 0 mm 5 mps 755 mmHg 47%
    14:00 +33°C° 0 mm 6 mps 754 mmHg 47%
    15:00 +33°C° 0 mm 6 mps 754 mmHg 51%
    16:00 +32°C° 0 mm 6 mps 754 mmHg 55%
    17:00 +30°C° 0 mm 5 mps 754 mmHg 59%
    18:00 +29°C° 0 mm 5 mps 754 mmHg 66%
    19:00 +27°C° 0 mm 4 mps 755 mmHg 73%
    20:00 +26°C° 0 mm 3 mps 755 mmHg 81%
    21:00 +25°C° 0 mm 3 mps 755 mmHg 82%
    22:00 +24°C° 0 mm 2 mps 755 mmHg 84%
    23:00 +24°C° 0 mm 1 mps 755 mmHg 86%

    Mañana, 21 Julio, Domingo

    Tiempo Temperatura Precipitaciones Viento Presión Humedad
    00:00 +24°C° 0 mm 1 mps 755 mmHg 86%
    01:00 +23°C° 0 mm 1 mps 754 mmHg 87%
    02:00 +23°C° 0 mm 1 mps 754 mmHg 87%
    03:00 +23°C° 0 mm 1 mps 754 mmHg 87%
    04:00 +23°C° 0 mm 1 mps 754 mmHg 87%
    05:00 +23°C° 0 mm 1 mps 754 mmHg 87%
    06:00 +25°C° 0 mm 1 mps 754 mmHg 78%
    07:00 +27°C° 0 mm 1 mps 754 mmHg 69%
    08:00 +29°C° 0 mm 1 mps 754 mmHg 60%
    09:00 +30°C° 0 mm 2 mps 754 mmHg 55%
    10:00 +31°C° 0 mm 3 mps 754 mmHg 49%
    11:00 +34°C° 0 mm 4 mps 754 mmHg 44%
    12:00 +34°C° 0 mm 5 mps 753 mmHg 46%
    13:00 +34°C° 0 mm 5 mps 753 mmHg 47%
    14:00 +33°C° 0 mm 6 mps 752 mmHg 48%
    15:00 +33°C° 0 mm 6 mps 752 mmHg 51%
    16:00 +32°C° 0 mm 5 mps 752 mmHg 54%
    17:00 +30°C° 0 mm 5 mps 752 mmHg 58%
    18:00 +29°C° 0 mm 4 mps 753 mmHg 66%
    19:00 +27°C° 0 mm 4 mps 753 mmHg 74%
    20:00 +26°C° 0 mm 3 mps 753 mmHg 83%
    21:00 +25°C° 0 mm 2 mps 753 mmHg 84%
    22:00 +24°C° 0 mm 2 mps 753 mmHg 85%
    23:00 +24°C° 0 mm 1 mps 753 mmHg 87%

    Pasado mañana, 22 Julio, Lunes

    Tiempo Temperatura Precipitaciones Viento Presión Humedad
    00:00 +23°C° 0 mm 1 mps 753 mmHg 87%
    01:00 +23°C° 0 mm 1 mps 753 mmHg 88%
    02:00 +23°C° 0 mm 1 mps 752 mmHg 88%
    03:00 +23°C° 0 mm 1 mps 752 mmHg 88%
    04:00 +23°C° 0 mm 1 mps 752 mmHg 89%
    05:00 +23°C° 0 mm 1 mps 753 mmHg 89%
    06:00 +25°C° 0 mm 1 mps 753 mmHg 81%
    07:00 +27°C° 0 mm 1 mps 753 mmHg 73%
    08:00 +29°C° 0 mm 1 mps 753 mmHg 64%
    09:00 +31°C° 0 mm 2 mps 753 mmHg 56%
    10:00 +34°C° 0 mm 3 mps 753 mmHg 49%
    11:00 +36°C° 0 mm 4 mps 752 mmHg 41%
    12:00 +36°C° 0 mm 5 mps 752 mmHg 43%
    13:00 +35°C° 0 mm 5 mps 751 mmHg 44%
    14:00 +35°C° 0 mm 6 mps 751 mmHg 46%
    15:00 +34°C° 0 mm 7 mps 751 mmHg 51%
    16:00 +33°C° 0 mm 7 mps 750 mmHg 55%
    17:00 +32°C° 0 mm 7 mps 750 mmHg 60%
    18:00 +30°C° 0 mm 6 mps 751 mmHg 66%
    19:00 +29°C° 0 mm 5 mps 751 mmHg 73%
    20:00 +27°C° 0 mm 4 mps 751 mmHg 79%
    21:00 +27°C° 0 mm 3 mps 751 mmHg 82%
    22:00 +26°C° 0 mm 2 mps 751 mmHg 84%
    23:00 +25°C° 0 mm 1 mps 751 mmHg 87%

    23 Julio, Martes

    Tiempo Temperatura Precipitaciones Viento Presión Humedad
    00:00 +25°C° 0 mm 1 mps 751 mmHg 87%
    01:00 +24°C° 0 mm 1 mps 750 mmHg 88%
    02:00 +24°C° 0 mm 1 mps 750 mmHg 88%
    03:00 +24°C° 0 mm 1 mps 750 mmHg 89%
    04:00 +23°C° 0 mm 1 mps 750 mmHg 89%
    05:00 +21°C° 0 mm 0 mps 750 mmHg 90%
    06:00 +26°C° 0 mm 1 mps 751 mmHg 81%
    07:00 +28°C° 0 mm 1 mps 751 mmHg 72%
    08:00 +30°C° 0 mm 1 mps 751 mmHg 63%
    09:00 +32°C° 0 mm 2 mps 751 mmHg 56%
    10:00 +34°C° 0 mm 3 mps 750 mmHg 50%
    11:00 +36°C° 0 mm 4 mps 750 mmHg 44%
    12:00 +36°C° 0 mm 5 mps 750 mmHg 44%
    13:00 +36°C° 0 mm 5 mps 750 mmHg 44%
    14:00 +36°C° 0 mm 6 mps 749 mmHg 44%
    15:00 +35°C° 0 mm 6 mps 749 mmHg 48%
    16:00 +34°C° 0 mm 6 mps 749 mmHg 52%
    17:00 +33°C° 0 mm 7 mps 750 mmHg 56%
    18:00 +30°C° 0 mm 5 mps 750 mmHg 65%
    19:00 +29°C° 0 mm 4 mps 750 mmHg 74%
    20:00 +27°C° 0 mm 3 mps 751 mmHg 83%
    21:00 +26°C° 0 mm 2 mps 751 mmHg 85%
    22:00 +26°C° 0 mm 2 mps 751 mmHg 87%
    23:00 +25°C° 0 mm 1 mps 751 mmHg 88%

    24 Julio, Miércoles

    Tiempo Temperatura Precipitaciones Viento Presión Humedad
    00:00 +24°C° 0 mm 1 mps 751 mmHg 88%
    01:00 +24°C° 0 mm 1 mps 751 mmHg 88%
    02:00 +24°C° 0 mm 1 mps 751 mmHg 88%
    03:00 +24°C° 0 mm 1 mps 751 mmHg 88%
    04:00 +24°C° 0 mm 2 mps 751 mmHg 87%
    05:00 +24°C° 0 mm 2 mps 751 mmHg 87%
    06:00 +26°C° 0 mm 2 mps 751 mmHg 77%
    07:00 +28°C° 0 mm 3 mps 751 mmHg 68%
    08:00 +30°C° 0 mm 3 mps 751 mmHg 59%
    09:00 +33°C° 0 mm 4 mps 751 mmHg 54%
    10:00 +34°C° 0 mm 4 mps 751 mmHg 48%
    11:00 +35°C° 0 mm 5 mps 751 mmHg 43%
    12:00 +36°C° 0 mm 5 mps 751 mmHg 42%
    13:00 +36°C° 0 mm 5 mps 751 mmHg 41%
    14:00 +36°C° 0 mm 5 mps 750 mmHg 41%
    15:00 +35°C° 0 mm 5 mps 750 mmHg 44%
    16:00 +34°C° 0 mm 5 mps 750 mmHg 48%
    17:00 +33°C° 0 mm 4 mps 750 mmHg 52%
    18:00 +30°C° 0 mm 4 mps 751 mmHg 63%
    19:00 +28°C° 0 mm 3 mps 751 mmHg 74%
    20:00 +26°C° 0 mm 3 mps 752 mmHg 85%
    21:00 +25°C° 0 mm 2 mps 752 mmHg 85%
    22:00 +25°C° 0 mm 2 mps 752 mmHg 86%
    23:00 +24°C° 0 mm 1 mps 751 mmHg 86%

    25 Julio, Jueves

    Tiempo Temperatura Precipitaciones Viento Presión Humedad
    00:00 +24°C° 0 mm 1 mps 751 mmHg 87%
    01:00 +21°C° 0 mm 0 mps 751 mmHg 88%
    02:00 +21°C° 0 mm 0 mps 751 mmHg 89%
    03:00 +23°C° 0 mm 1 mps 751 mmHg 90%
    04:00 +23°C° 0 mm 1 mps 752 mmHg 90%
    05:00 +23°C° 0 mm 2 mps 752 mmHg 91%
    06:00 +25°C° 0 mm 2 mps 752 mmHg 81%
    07:00 +27°C° 0 mm 1 mps 752 mmHg 72%
    08:00 +30°C° 0 mm 1 mps 752 mmHg 62%
    09:00 +31°C° 0 mm 2 mps 752 mmHg 55%
    10:00 +34°C° 0 mm 3 mps 752 mmHg 47%
    11:00 +36°C° 0 mm 4 mps 752 mmHg 39%
    12:00 +36°C° 0 mm 4 mps 752 mmHg 40%
    13:00 +36°C° 0 mm 5 mps 751 mmHg 41%
    14:00 +36°C° 0 mm 6 mps 751 mmHg 42%
    15:00 +35°C° 0 mm 5 mps 751 mmHg 43%
    16:00 +34°C° 0 mm 5 mps 751 mmHg 45%
    17:00 +33°C° 0 mm 5 mps 751 mmHg 47%
    18:00 +30°C° 0 mm 5 mps 751 mmHg 58%
    19:00 +28°C° 0 mm 4 mps 751 mmHg 69%
    20:00 +27°C° 0 mm 4 mps 752 mmHg 80%
    21:00 +26°C° 0 mm 3 mps 752 mmHg 78%
    22:00 +25°C° 0 mm 2 mps 752 mmHg 75%
    23:00 +25°C° 0 mm 2 mps 752 mmHg 73%
    Mostrar más